Regional Weather Roundup
Issued by NWS New Orleans/Baton Rouge, LA

Home | Current Version | Previous Version | Graphics & Text | Print | Product List | Glossary On
Versions: 1 2 3 4 5 6 7 8 9 10 11 12 13 14 15 16 17 18 19 20 21 22 23 24 25 26 27 28 29 30 31 32 33 34 35 36 37 38 39 40 41 42 43 44 45 46 47 48 49 50
922
ASUS44 KLIX 160505
RWRLIX
NEW ORLEANS REGIONAL WEATHER ROUNDUP
NATIONAL WEATHER SERVICE NEW ORLEANS LA
1200 AM CDT WED APR 16 2014

NOTE: "FAIR" INDICATES FEW OR NO CLOUDS BELOW 12,000 FEET WITH NO
      SIGNIFICANT WEATHER AND/OR OBSTRUCTIONS TO VISIBILITY.
      SKY/WX - SKY CONDITION AND SIGNIFICANT WEATHER.
      TMP - AIR TEMPERATURE.     DP    - DEWPOINT TEMPERATURE.
      RH  - RELATIVE HUMIDITY.   PRES  - PRESSURE.
      HI  - HEAT INDEX.          WCI   - WIND CHILL INDEX.

*  THESE STATIONS ARE NOT NWS OR FAA STATIONS AND ARE NOT UNDER
   NWS QUALITY CONTROL.

LAZ038-040-048-061>063-065>067-069-160600-
SOUTHEAST LOUISIANA

CITY           SKY/WX    TMP DP  RH WIND       PRES   REMARKS
N.O. AUDUBON     N/A     53  33  46 MISG        N/A
N.O. INTL ARPT CLEAR     51  34  52 N21G28    30.17F
N.O. LAKEFRONT CLEAR     53  37  54 N26       30.18F
N.O. DOWNTOWN*   N/A     52  28  40 N10G22    30.17F
SLIDELL        CLEAR     45  35  68 N7        30.18F
BATON ROUGE    CLEAR     46  32  58 NE8       30.20F
BOOTHVILLE     CLEAR     56  37  49 N13G21    30.16S
BELLE CHASSE   CLEAR     52  32  46 N8G20     30.16F
BOGALUSA*        N/A     42  35  78 N5        30.23S
GALLIANO*      CLEAR     54  35  49 N15G21    30.16S
NEW ROADS*       N/A     45  32  61 NE9       30.20F
GONZALES*        N/A     47  33  59 N6        30.18F
HAMMOND*       CLEAR     41  36  81 N5        30.21F
HOUMA*           N/A     47  36  64 N7        30.16S
PORT FOURCHON* CLEAR     54  37  54 NE16G23   30.17S

$$

MSZ070-080>082-160600-
SOUTHERN MISSISSIPPI

CITY           SKY/WX    TMP DP  RH WIND       PRES   REMARKS
MCCOMB         CLEAR     41  33  73 N5        30.21F
GULFPORT       CLEAR     48  34  58 N9        30.18S
BILOXI         CLEAR     47  35  62 N10       30.18S
PASCAGOULA     CLEAR     45  33  63 N8        30.18S

$$

COASTAL OBSERVATIONS
LAKE AND NEARSHORE STATIONS

STATION/POSITION TIME  TEMP    WIND        PRES    WAVE
                       AIR SEA DIR/SP/G            HT/PER
                 (UTC) (F)     (DEG/KT/KT) (MB)    (FT/S)
PASCAGOULA       0500   48      10/ 10/ 13 1021.0
WAVELAND YACHT   0500   49 65  360/ 16/ 19 1021.2
GRAND ISLE       0500   55 65   30/ 20/ 25 1021.4
SOUTHWEST PASS   0500   58 58   20/ 17/ 19 1021.2
NEW CANAL        0500   54 63   20/ 24/ 29 1021.6
SHELL BEACH      0500   53 62   10/ 25/ 29 1021.0

OFFSHORE STATIONS

STATION/POSITION TIME  TEMP    WIND        PRES    WAVE
                       AIR SEA DIR/SP/G            HT/PER
                 (UTC) (F)     (DEG/KT/KT) (MB)    (FT/S)
64 S DAUPHIN ISL 0416   58 68   10/ 21/ 29 1020.9

$$




USA.gov is the U.S. government's official web portal to all federal, state and local government web resources and services.